Tracking 31027 objects as of 19-Jul-2025
HD Live streaming from Space Station
objects crossing your sky now

STARLINK-3557

Track STARLINK-3557 now!
10-day predictions
STARLINK-3557 is classified as:


NORAD ID: 51802
Int'l Code: 2022-017AL
Perigee: 454.3 km
Apogee: 457.8 km
Inclination: 53.2 °
Period: 93.6 minutes
Semi major axis: 6827 km
RCS: Unknown
Launch date: February 25, 2022
Source: United States (US)
Launch site: AIR FORCE WESTERN TEST RANGE (AFWTR)
Your satellite tracking list
STARLINK-31611
Track 1 satellite(s)




NASA's NSSDC Master Catalog

Two Line Element Set (TLE):
1 51802U 22017AL  25199.46307079  .00050168  00000-0  12796-2 0  9997
2 51802  53.2002 304.9127 0002531 347.9911  12.1034 15.39049248188789
Source of the keplerian elements: AFSPC